Weather History for Brookings, SD

Change the Weather History Date:

Friday, February 1, 2013

  Actual Average Record
Temperature  
Mean Temperature 4 °F -  
Max Temperature 19 °F 25 °F 48 °F (2012)
Min Temperature -11 °F 8 °F -11 °F (2001)
Degree Days  
Heating Degree Days 61    
Moisture  
Dew Point 0 °F    
Average Humidity 81    
Maximum Humidity 100    
Minimum Humidity 65    
Precipitation  
Precipitation 0.00 in - - ()
Sea Level Pressure  
Sea Level Pressure 30.07 in    
Wind  
Wind Speed 7 mph (SSW)    
Max Wind Speed 17 mph    
Max Gust Speed 21 mph    
Visibility 10 miles    
Events      
Averages and records for this station are not official NWS values.
T = Trace of Precipitation, MM = Missing Value Source: NWS Daily Summary

Daily Weather History Graph

Daily Weather History Graph

Search for Another Location

Airport:

Trip Planner

Search our weather history database for the weather conditions in past years. The results will help you decide how hot, cold, wet, or windy it might be!

Date:

Astronomy

Feb. 01, 2013 Rise Set
Actual Time 7:45 AM CST 5:37 PM CST
Civil Twilight 7:14 AM CST 6:08 PM CST
Nautical Twilight 6:39 AM CST 6:42 PM CST
Astronomical Twilight 6:05 AM CST 7:16 PM CST
Moon No Moon Rise 10:03 AM CST (2/1)
Length of Visible Light 10h 53m
Length of Day
9h 52m
Waning Gibbous, 70% of the Moon is Illuminated
Feb 1
Waning Gibbous
Feb 3
Last Quarter
Feb 10
New
Feb 17
First Quarter
Feb 25
Full

Hourly Weather History & Observations

Time (CST) Temp. Windchill Dew Point Humidity Pressure Visibility Wind Dir Wind Speed Gust Speed Precip Events Conditions
12:15 AM -9.4 °F -18.6 °F -14.8 °F 77% 30.27 in 10.0 mi West 3.5 mph - N/A   Clear
1:15 AM -9.4 °F -18.6 °F -14.8 °F 77% 30.26 in 10.0 mi West 3.5 mph - N/A   Clear
1:35 AM -9.4 °F -20.9 °F -14.8 °F 77% 30.26 in 10.0 mi West 4.6 mph - N/A   Clear
2:15 AM -11.2 °F -20.6 °F -16.6 °F 77% 30.26 in 10.0 mi WSW 3.5 mph - N/A   Clear
2:35 AM -9.4 °F -20.9 °F -13.0 °F 84% 30.26 in 10.0 mi WSW 4.6 mph - N/A   Clear
2:55 AM -11.2 °F -23.0 °F -14.8 °F 84% 30.26 in 10.0 mi WSW 4.6 mph - N/A   Clear
3:15 AM -9.4 °F - -14.8 °F 77% 30.24 in 10.0 mi Calm Calm - N/A   Clear
3:35 AM -9.4 °F - -11.2 °F 92% 30.24 in 10.0 mi Calm Calm - N/A   Clear
3:55 AM -9.4 °F -18.6 °F -16.6 °F 71% 30.24 in 10.0 mi SW 3.5 mph - N/A   Clear
4:15 AM -11.2 °F -23.0 °F -13.0 °F 92% 30.23 in 10.0 mi SW 4.6 mph - N/A   Clear
4:35 AM -11.2 °F -24.8 °F -14.8 °F 84% 30.23 in 10.0 mi SSW 5.8 mph - N/A   Clear
4:55 AM -11.2 °F -23.0 °F -13.0 °F 92% 30.22 in 10.0 mi SSW 4.6 mph - N/A   Clear
5:15 AM -9.4 °F -20.9 °F -14.8 °F 77% 30.21 in 10.0 mi SSW 4.6 mph - N/A   Clear
5:35 AM -9.4 °F -18.6 °F -11.2 °F 92% 30.21 in 10.0 mi South 3.5 mph - N/A   Clear
6:15 AM -9.4 °F -18.6 °F -11.2 °F 92% 30.20 in 10.0 mi South 3.5 mph - N/A   Clear
6:35 AM -9.4 °F -18.6 °F -13.0 °F 84% 30.18 in 10.0 mi South 3.5 mph - N/A   Clear
6:55 AM -9.4 °F -20.9 °F -11.2 °F 92% 30.18 in 10.0 mi South 4.6 mph - N/A   Clear
7:15 AM -9.4 °F -20.9 °F -13.0 °F 84% 30.18 in 10.0 mi South 4.6 mph - N/A   Scattered Clouds
7:35 AM -7.6 °F -18.8 °F -13.0 °F 77% 30.16 in 10.0 mi South 4.6 mph - N/A   Overcast
8:15 AM -5.8 °F -18.4 °F -14.8 °F 65% 30.16 in 10.0 mi South 5.8 mph - N/A   Overcast
8:35 AM -5.8 °F -16.7 °F -5.8 °F 100% 30.14 in 10.0 mi South 4.6 mph - N/A   Overcast
8:55 AM -5.8 °F -19.9 °F -11.2 °F 77% 30.14 in 10.0 mi South 6.9 mph - N/A   Overcast
9:15 AM -2.2 °F -16.8 °F -4.0 °F 92% 30.13 in 10.0 mi South 8.1 mph - N/A   Mostly Cloudy
9:35 AM -0.4 °F -15.7 °F -9.4 °F 66% 30.12 in 10.0 mi South 9.2 mph - N/A   Partly Cloudy
9:55 AM -0.4 °F -14.7 °F -2.2 °F 92% 30.12 in 10.0 mi South 8.1 mph - N/A   Partly Cloudy
10:15 AM 1.4 °F -15.3 °F -5.8 °F 72% 30.10 in 10.0 mi South 11.5 mph - N/A   Mostly Cloudy
10:35 AM 1.4 °F -14.5 °F -4.0 °F 78% 30.12 in 10.0 mi South 10.4 mph - N/A   Mostly Cloudy
10:55 AM 3.2 °F -12.2 °F -4.0 °F 72% 30.10 in 10.0 mi South 10.4 mph - N/A   Overcast
11:15 AM 3.2 °F -15.3 °F -2.2 °F 78% 30.09 in 10.0 mi South 15.0 mph - N/A   Overcast
11:35 AM 3.2 °F -12.2 °F -2.2 °F 78% 30.08 in 10.0 mi South 10.4 mph - N/A   Overcast
12:15 PM 6.8 °F -10.7 °F -0.4 °F 72% 30.04 in 10.0 mi South 15.0 mph - N/A   Overcast
12:35 PM 6.8 °F -9.3 °F 1.4 °F 79% 30.03 in 10.0 mi SSE 12.7 mph - N/A   Mostly Cloudy
12:55 PM 8.6 °F -6.3 °F 3.2 °F 79% 30.02 in 10.0 mi South 11.5 mph - N/A   Mostly Cloudy
1:15 PM 8.6 °F -4.7 °F 1.4 °F 73% 30.01 in 10.0 mi South 9.2 mph - N/A   Overcast
1:35 PM 8.6 °F -6.3 °F 3.2 °F 79% 29.99 in 10.0 mi South 11.5 mph - N/A   Overcast
1:55 PM 10.4 °F -4.1 °F 6.8 °F 85% 29.98 in 5.0 mi South 11.5 mph - N/A   Overcast
2:15 PM 10.4 °F -4.1 °F 3.2 °F 73% 29.97 in 3.0 mi South 11.5 mph - N/A   Overcast
2:35 PM 10.4 °F -3.3 °F 5.0 °F 79% 29.96 in 10.0 mi South 10.4 mph - N/A   Overcast
2:55 PM 10.4 °F -5.4 °F 6.8 °F 85% 29.95 in 10.0 mi South 13.8 mph - N/A   Overcast
3:15 PM 10.4 °F -4.1 °F 5.0 °F 79% 29.94 in 10.0 mi South 11.5 mph - N/A   Overcast
3:35 PM 12.2 °F -2.5 °F 6.8 °F 79% 29.95 in 10.0 mi South 12.7 mph - N/A   Overcast
3:55 PM 12.2 °F -1.0 °F 8.6 °F 85% 29.94 in 10.0 mi South 10.4 mph - N/A   Overcast
4:15 PM 14.0 °F 0.5 °F 8.6 °F 79% 29.95 in 10.0 mi SSW 11.5 mph - N/A   Overcast
4:35 PM 15.8 °F 3.4 °F 8.6 °F 73% 29.95 in 10.0 mi SSW 10.4 mph - N/A   Overcast
5:15 PM 15.8 °F 7.2 °F 10.4 °F 79% 29.95 in 10.0 mi SSW 5.8 mph - N/A   Overcast
5:35 PM 15.8 °F 10.2 °F 10.4 °F 79% 29.95 in 10.0 mi SSW 3.5 mph - N/A   Overcast
5:55 PM 17.6 °F 12.3 °F 10.4 °F 73% 29.95 in 10.0 mi SSW 3.5 mph - N/A   Overcast
6:15 PM 17.6 °F 12.3 °F 10.4 °F 73% 29.95 in 10.0 mi SW 3.5 mph - N/A   Overcast
6:35 PM 17.6 °F - 12.2 °F 79% 29.95 in 10.0 mi Calm Calm - N/A   Overcast
6:55 PM 17.6 °F 12.3 °F 12.2 °F 79% 29.96 in 10.0 mi WSW 3.5 mph - N/A   Overcast
7:15 PM 17.6 °F - 12.2 °F 79% 29.96 in 10.0 mi Calm Calm - N/A   Overcast
7:35 PM 17.6 °F 8.2 °F 12.2 °F 79% 29.97 in 10.0 mi West 6.9 mph - N/A   Overcast
7:55 PM 19.4 °F 5.5 °F 14.0 °F 80% 29.97 in 10.0 mi NW 15.0 mph - N/A   Overcast
8:15 PM 17.6 °F 5.0 °F 12.2 °F 79% 29.97 in 10.0 mi NW 11.5 mph - N/A   Mostly Cloudy
8:35 PM 17.6 °F 5.0 °F 12.2 °F 79% 29.97 in 10.0 mi NW 11.5 mph - N/A   Mostly Cloudy
8:55 PM 17.6 °F 3.7 °F 12.2 °F 79% 29.97 in 10.0 mi NNW 13.8 mph - N/A   Overcast
9:15 PM 17.6 °F 4.3 °F 12.2 °F 79% 29.98 in 10.0 mi NNW 12.7 mph - N/A   Overcast
9:35 PM 17.6 °F 2.2 °F 12.2 °F 79% 29.98 in 10.0 mi NNW 17.3 mph - N/A   Overcast
9:55 PM 15.8 °F -0.2 °F 12.2 °F 86% 29.99 in 10.0 mi NNW 17.3 mph - N/A   Overcast
10:15 PM 15.8 °F 0.9 °F 12.2 °F 86% 30.00 in 10.0 mi NNW 15.0 mph 20.7 mph N/A   Overcast
10:35 PM 15.8 °F 1.4 °F 10.4 °F 79% 30.01 in 10.0 mi NNW 13.8 mph - N/A   Scattered Clouds
10:55 PM 14.0 °F -0.8 °F 10.4 °F 86% 30.01 in 10.0 mi NNW 13.8 mph - N/A   Clear
11:15 PM 14.0 °F -0.2 °F 10.4 °F 86% 30.02 in 10.0 mi NNW 12.7 mph 20.7 mph N/A   Mostly Cloudy
11:35 PM 14.0 °F -0.2 °F 10.4 °F 86% 30.03 in 10.0 mi NNW 12.7 mph - N/A   Scattered Clouds
11:55 PM 12.2 °F -1.8 °F 10.4 °F 92% 30.04 in 10.0 mi NNW 11.5 mph - N/A   Mostly Cloudy